Location: American Medical Response
(33.3472°N, 96.5511°W)
Time: 12:20:55
(UTC+00:00)

Cosmos 1805 Rocket - Pass Details

Date: 04 July 2022
Orbit: 605 x 629 km, 82.5° (Epoch: 10 August)

Event Time Altitude Azimuth Distance (km) Brightness Sun altitude
Exits shadow 09:01:07 20° 135° (SE) 1,449 5.3 -23.3°
Maximum altitude 09:03:14 30° 91° (E) 1,126 5.2 -23.1°
Drops below altitude 10° 09:07:05 10° 30° (NNE) 1,990 7.3 -22.6°
Sets 09:09:30 0° 20° (NNE) 2,895 8.2 -22.2°
